Regional Weather Roundup
Issued by NWS

Home | Current Version | Previous Version | Graphics & Text | Print | Product List | Glossary On
Versions: 1 2 3 4 5 6 7 8 9 10 11 12 13 14 15 16 17 18 19 20 21 22 23 24 25 26 27 28 29 30 31 32 33 34 35 36 37 38 39 40 41 42 43 44 45 46 47 48 49 50
000
ASUS45 KBOU 060907
RWRCO

WEATHER ROUNDUP FOR COLORADO
NATIONAL WEATHER SERVICE DENVER/BOULDER CO
200 AM MST FRI MAR 06 2015

NOTE: "FAIR" INDICATES FEW OR NO CLOUDS BELOW 12000 FEET WITH NO
SIGNIFICANT WEATHER AND/OR OBSTRUCTIONS TO VISIBILITY.

COZ001>005-013-030-031-061000-
...NORTHWEST COLORADO...

CITY           SKY/WX    TMP DP  RH WIND       PRES   REMARKS
CRAIG          PTCLDY    13   9  84 CALM      30.42R
HAYDEN         PTCLDY    18   9  68 E10       30.40R WCI   6
MEEKER         CLEAR     22  14  71 E5        30.41S WCI  16
MOUNT WERNER   NOT AVBL
STEAMBOAT SPGS PTCLDY    11   8  85 CALM      30.40S
WALDEN         MOCLDY    21   9  58 S6        30.33R WCI  14
$$

COZ006>008-011-061000-
...WEST CENTRAL VALLEYS...

CITY           SKY/WX    TMP DP  RH WIND       PRES   REMARKS
GRAND JUNCTION CLEAR     26  19  74 E3        30.42R
MONTROSE       PTCLDY    25  16  68 S7        30.45R WCI  17
EAGLE          PTCLDY    19  16  86 E3        30.45S
RIFLE          PTCLDY    23  17  78 E6        30.45R WCI  16
DELTA          NOT AVBL
NUCLA          PTCLDY    27  18  69 E6        30.44S WCI  20
$$

COZ017>023-064>068-061000-
...SOUTHWEST COLORADO...

CITY           SKY/WX    TMP DP  RH WIND       PRES   REMARKS
DURANGO        CLEAR     21  13  71 N5        30.38S WCI  15
CORTEZ         CLEAR     23  18  81 NE7       30.39S WCI  15
PAGOSA SPRINGS CLEAR     10   8  91 CALM      30.39S
TELLURIDE      PTCLDY    19   4  51 E6        30.40S WCI  11
WOLF CREEK PAS CLEAR     19  -8  30 W6        30.41S WCI  11
$$

COZ009-010-012-014-032>034-037-058>063-061000-
...CENTRAL COLORADO...

CITY           SKY/WX    TMP DP  RH WIND       PRES   REMARKS
ASPEN          PTCLDY    10   4  76 S7        30.40R WCI  -1
BUENA VISTA    PTCLDY    17   6  62 CALM      30.35R
COPPER MTN     PTCLDY    18  -4  38 W28       30.33S WCI  -1
BERTHOUD PASS  NOT AVBL
COTTONWOOD PAS PTCLDY    28  -8  20 N5        30.32S WCI  23
GUNNISON       PTCLDY     3   0  85 CALM      30.47R
KREMMLING      PTCLDY    10   5  79 CALM      30.42S
LEADVILLE      PTCLDY    13  -4  46 VRB3      30.33S
SALIDA         PTCLDY    27   7  43 NW15G22   30.41S WCI  15
SUNLIGHT       PTCLDY    18  12  79 CALM        N/A
WILKERSON PASS MOCLDY    18  -4  38 W10G16    30.32S WCI   6
$$

COZ069>075-061000-
...SAN LUIS VALLEY/SANGRE DE CRISTO MOUNTAINS...

CITY           SKY/WX    TMP DP  RH WIND       PRES   REMARKS
ALAMOSA        PTCLDY    16  11  80 SW5       30.38S WCI   9
LA VETA PASS   CLEAR     19   3  49 MISG      30.32R
SAGUACHE       PTCLDY    23  12  63 NW16      30.39S WCI  10
$$

COZ035-036-038>040-061000-
...NORTHERN COLORADO FRONT RANGE...

CITY           SKY/WX    TMP DP  RH WIND       PRES   REMARKS
DENVER INTL AP MOCLDY    21  12  68 S8        30.23S WCI  11
DMNS CITY PARK   N/A     26  16  66 SE5       30.24S WCI  20
AURORA         MOCLDY    27  11  50 S10       30.24S WCI  17
FRONT RANGE AP PTCLDY    23  16  74 S14       30.24S WCI  11
ERIE MUNI ARPT PTCLDY    18  13  82 CALM      30.24S
BOULDER MUN AP PTCLDY    28  12  50 CALM      30.24R
CENTENNIAL     PTCLDY    28  11  48 SE6       30.23F WCI  22
BROOMFIELD     PTCLDY    32  12  43 NW6       30.23S WCI  26
FORT COLLINS   MOCLDY    25  14  63 CALM      30.26S
LONGMONT       MOCLDY    21  13  72 SW3       30.27S
$$

COZ041-046-047-076>085-087-088-061000-
...PIKES PEAK/PALMER DIVIDE AND SOUTHERN FOOTHILLS...

CITY           SKY/WX    TMP DP  RH WIND       PRES   REMARKS
COLO. SPRINGS  PTCLDY    21  12  68 N7        30.27S WCI  12
A. F. ACADEMY  PTCLDY    15   6  70 N7        30.26S WCI   5
ELLICOTT       NOT AVBL
FALCON         PTCLDY    20   7  57 W7        30.27S WCI  11
FORT CARSON    PTCLDY    22  13  70 NW10      30.25S WCI  11
LIMON          PTCLDY     7   3  84 N6        30.26S WCI  -3
MONUMENT HILL  PTCLDY    28   3  34 SW12      30.24F WCI  18
TRINIDAD       CLEAR     27  19  72 W12       30.29S WCI  17
$$

COZ042>045-048>051-090-091-061000-
...NORTHEAST COLORADO...

CITY           SKY/WX    TMP DP  RH WIND       PRES   REMARKS
GREELEY ARPT   PTCLDY    25  16  68 CALM      30.24F
AKRON          CLEAR     25  18  74 W12       30.23S WCI  14
BURLINGTON     CLEAR     25  20  81 W9        30.26S WCI  15
WRAY           CLEAR     23  19  85 W5        30.25S WCI  17
STERLING       CLEAR     21  19  93 SW6       30.25S WCI  14
HOLYOKE        CLEAR     27  21  80 W13       30.24S WCI  16
FORT MORGAN    CLEAR     21  18  87 W10       30.25F WCI  10
$$

COZ086-089-092>099-061000-
...SOUTHEAST COLORADO...

CITY           SKY/WX    TMP DP  RH WIND       PRES   REMARKS
PUEBLO         CLEAR     24  20  84 CALM      30.28S
LA JUNTA       CLEAR     27  22  81 W10       30.29R WCI  17
LAMAR          CLEAR     22  19  89 S10       30.28R WCI  11
SPRINGFIELD      N/A     27  23  85 NW12      30.26S WCI  17
$$



USA.gov is the U.S. government's official web portal to all federal, state and local government web resources and services.